Tracking 30102 objects as of 12-Dec-2024
HD Live streaming from Space Station
objects crossing your sky now

STARLINK-32429

Track STARLINK-32429 now!
10-day predictions
STARLINK-32429 is classified as:


NORAD ID: 61682
Int'l Code: 2024-193X
Perigee: 453.3 km
Apogee: 455.5 km
Inclination: 53.2 °
Period: 93.5 minutes
Semi major axis: 6825 km
RCS: Unknown
Launch date: October 26, 2024
Source: United States (US)
Launch site: AIR FORCE EASTERN TEST RANGE (AFETR)
Your satellite tracking list
Your tracking list is empty




NASA's NSSDC Master Catalog

Two Line Element Set (TLE):
1 61682U 24193X   24346.85601112  .00002801  00000-0  80014-4 0  9993
2 61682  53.1627  36.6465 0001551 107.7819 252.3356 15.39610041  7164
Source of the keplerian elements: AFSPC